Wheeler AAF, HI

10:50 PM HST on April 27, 2017 (GMT -1000)
Wheeler Army Air Field

Weather History for PHHI - October, 2011

Change the Weather History Date:

Wednesday, October 26, 2011

  Actual Average Record
Temperature  
Mean Temperature 72 °F -  
Max Temperature 82 °F 79 °F 85 °F (2013)
Min Temperature 63 °F 67 °F 63 °F (2011)
Cooling Degree Days 8    
Growing Degree Days 22 (Base 50)    
Moisture  
Dew Point 52 °F    
Average Humidity 56    
Maximum Humidity 93    
Minimum Humidity 4    
Precipitation  
Precipitation 0.00 in - - ()
Sea Level Pressure  
Sea Level Pressure 30.00 in    
Wind  
Wind Speed 5 mph (ENE)    
Max Wind Speed 17 mph    
Max Gust Speed 23 mph    
Visibility 10 miles    
Events      
Averages and records for this station are not official NWS values.
T = Trace of Precipitation, MM = Missing Value Source: NWS Daily Summary

Daily Weather History Graph

Daily Weather History Graph

Search for Another Location

Airport or City:

Trip Planner

Search our weather history database for the weather conditions in past years. The results will help you decide how hot, cold, wet, or windy it might be!

Date:

Astronomy

Oct. 26, 2011 Rise Set
Actual Time 6:32 AM HST 5:59 PM HST
Civil Twilight 6:09 AM HST 6:22 PM HST
Nautical Twilight 5:43 AM HST 6:48 PM HST
Astronomical Twilight 5:17 AM HST 7:14 PM HST
Moon 6:27 AM HST (10/26) 6:01 PM HST (10/26)
Length of Visible Light 12h 12m
Length of Day
11h 27m
New Moon, 0% of the Moon is Illuminated
Oct 26
New Moon
Nov 2
First Quarter
Nov 10
Full
Nov 18
Last Quarter
Nov 24
New

Hourly Weather History & Observations

Time (HST) Temp. Heat Index Dew Point Humidity Pressure Visibility Wind Dir Wind Speed Gust Speed Precip Events Conditions
12:55 AM 64.0 °F - 35.2 °F 34% 30.02 in 10.0 mi NW 5.8 mph - N/A   Clear
1:55 AM 64.9 °F - - N/A% 30.01 in 10.0 mi Calm Calm - N/A   Clear
2:55 AM 63.9 °F - -17.3 °F 4% 29.99 in 10.0 mi Calm Calm - N/A   Clear
3:55 AM 65.3 °F - - N/A% 29.98 in 10.0 mi Calm Calm - N/A   Partly Cloudy
4:55 AM 66.6 °F - 64.4 °F 93% 29.98 in 10.0 mi Calm Calm - N/A   Clear
5:55 AM 67.3 °F - 62.6 °F 85% 29.99 in 10.0 mi Calm Calm - N/A   Clear
6:55 AM 66.4 °F - 62.6 °F 88% 30.01 in 10.0 mi Calm Calm - N/A   Clear
7:55 AM 68.2 °F - 62.6 °F 82% 30.03 in 10.0 mi Calm Calm - N/A   Clear
8:55 AM 75.0 °F - 37.6 °F 26% 30.03 in 10.0 mi South 4.6 mph - N/A   Clear
9:55 AM 77.0 °F - 64.4 °F 65% 30.04 in 10.0 mi ESE 4.6 mph - N/A   Scattered Clouds
10:55 AM 79.7 °F - 60.8 °F 52% 30.01 in 10.0 mi ENE 11.5 mph 19.6 mph N/A   Clear
11:55 AM 80.8 °F 81.5 °F 60.8 °F 50% 29.99 in 10.0 mi East 15.0 mph - N/A   Clear
12:55 PM 81.5 °F - 22.1 °F 11% 29.97 in 10.0 mi East 13.8 mph - N/A   Clear
1:55 PM 82.4 °F - 28.0 °F 14% 29.95 in 10.0 mi ENE 15.0 mph 20.7 mph N/A   Clear
2:55 PM 80.8 °F 81.5 °F 60.8 °F 50% 29.94 in 10.0 mi East 17.3 mph 23.0 mph N/A   Clear
3:55 PM 79.5 °F - 62.6 °F 56% 29.94 in 10.0 mi ENE 15.0 mph 19.6 mph N/A   Clear
4:55 PM 76.8 °F - 62.6 °F 61% 29.95 in 10.0 mi East 12.7 mph - N/A   Clear
5:59 PM 78.8 °F - 62.6 °F 57% 30.00 in 7.0 mi East 4.6 mph - N/A   Partly Cloudy
6:55 PM 72.5 °F - 62.6 °F 71% 29.99 in 10.0 mi ENE 4.6 mph - N/A   Scattered Clouds
7:55 PM 72.3 °F - 62.6 °F 71% 30.01 in 10.0 mi NE 5.8 mph - N/A   Scattered Clouds
8:55 PM 71.1 °F - 62.6 °F 75% 30.02 in 10.0 mi Calm Calm - N/A   Mostly Cloudy
9:55 PM 71.4 °F - 53.8 °F 54% 30.02 in 10.0 mi Variable 4.6 mph - N/A   Partly Cloudy
10:39 PM 71.6 °F - 55.4 °F 57% 30.02 in 10.0 mi NE 5.8 mph - N/A   Light Drizzle
10:50 PM 71.6 °F - 55.4 °F 57% 30.02 in 10.0 mi Calm Calm - N/A   Overcast
10:55 PM 71.2 °F - 55.8 °F 58% 30.02 in 10.0 mi Calm Calm - 0.00 in   Overcast
11:55 PM 70.0 °F - 56.7 °F 63% 30.01 in 10.0 mi West 3.5 mph - N/A   Overcast